This is the latest recevied weather packets stored in our database for station/object KE2HEH. If no packets are shown the sender has not sent any weather packets the latest 10 day(s).
| Time | Temp. | Humidity | Pressure | Rain* | Wind** | Luminosity | Snow |
|---|---|---|---|---|---|---|---|
| 1778263317 | 16.11° C | 50% | 1012.9 hPa | 0 mm | - | 613 W/m² | - |
| 1778263013 | 16.11° C | 50% | 1012.8 hPa | 0 mm | - | 563 W/m² | - |
| 1778262709 | 16.11° C | 52% | 1012.7 hPa | 0 mm | - | 586 W/m² | - |
| 1778262408 | 15.56° C | 52% | 1012.6 hPa | 0 mm | - | 568 W/m² | - |
| 1778262104 | 15.56° C | 55% | 1012.6 hPa | 0 mm | - | 570 W/m² | - |
| 1778261801 | 15.56° C | 54% | 1012.8 hPa | 0 mm | - | 561 W/m² | - |
| 1778261497 | 15.56° C | 54% | 1012.8 hPa | 0 mm | - | 556 W/m² | - |
| 1778261194 | 15.56° C | 50% | 1012.6 hPa | 0 mm | - | 553 W/m² | - |
| 1778260891 | 15.56° C | 50% | 1012.8 hPa | 0 mm | - | 547 W/m² | - |
| 1778260588 | 15.56° C | 51% | 1012.8 hPa | 0 mm | - | 554 W/m² | - |
| 1778260284 | 15.56° C | 49% | 1013 hPa | 0 mm | - | 547 W/m² | - |
| 1778259981 | 15.56° C | 51% | 1013 hPa | 0 mm | - | 573 W/m² | - |
| 1778259679 | 15.56° C | 51% | 1013 hPa | 0 mm | - | 575 W/m² | - |
| 1778259376 | 15° C | 55% | 1012.9 hPa | 0 mm | - | 564 W/m² | - |
| 1778259073 | 14.44° C | 59% | 1013.2 hPa | 0 mm | - | 553 W/m² | - |
| 1778258769 | 15° C | 60% | 1012.8 hPa | 0 mm | - | 568 W/m² | - |
| 1778258466 | 15° C | 59% | 1013.1 hPa | 0 mm | - | 587 W/m² | - |
| 1778258163 | 15° C | 61% | 1013.2 hPa | 0 mm | - | 614 W/m² | - |
| 1778257860 | 13.89° C | 66% | 1013.4 hPa | 0 mm | - | 622 W/m² | - |
| 1778257556 | 13.89° C | 67% | 1013.2 hPa | 0 mm | - | 596 W/m² | - |
| 1778257254 | 13.89° C | 69% | 1013.3 hPa | 0 mm | - | 585 W/m² | - |
| 1778256950 | 13.33° C | 72% | 1013.3 hPa | 0 mm | - | 504 W/m² | - |
| 1778256648 | 12.78° C | 72% | 1013.7 hPa | 0 mm | - | 570 W/m² | - |
| 1778256347 | 12.78° C | 74% | 1013.5 hPa | 0 mm | - | 602 W/m² | - |
| 1778256043 | 12.78° C | 74% | 1013.5 hPa | 0 mm | - | 613 W/m² | - |
* Rain latest hour (hover to see other rain measurements)
** Current wind speed in m/s (hover to see current wind gust speed)